Regional Weather Roundup
Issued by NWS

Home | Current Version | Previous Version | Text Only | Print | Product List | Glossary Off
Versions: 1 2 3 4 5 6 7 8 9 10 11 12 13 14 15 16 17 18 19 20 21 22 23 24 25 26 27 28 29 30 31 32 33 34 35 36 37 38 39 40 41 42 43 44 45 46 47 48 49 50

000
ASUS43 KDMX 160301
RWRIA

WEATHER ROUNDUP FOR IOWA
NATIONAL WEATHER SERVICE DES MOINES IA
1000 PM CDT TUE AUG 15 2017

NOTE: "FAIR" INDICATES FEW OR NO CLOUDS BELOW 12,000 FEET WITH NO
SIGNIFICANT WEATHER AND/OR OBSTRUCTIONS TO VISIBILITY.

* - THESE STATIONS ARE NOT NWS STATIONS...THUS NOT UNDER NWS
QUALITY CONTROL.  THEY ALSO DO NOT REPORT WEATHER SUCH
AS PRECIPITATION OR FOG.

IAZ001>003-012>014-020>022-031>034-043>046-160400-
   NORTHWEST IOWA

CITY           SKY/WX    TMP DP  RH WIND       PRES   REMARKS
CARROLL *      CLOUDY    70  70 100 SE6       29.93R FOG
CHEROKEE *     DRIZZLE   67  67 100 S9        29.86F
DENISON *      LGT RAIN  68  66  94 E8        29.92F
LE MARS *      CLOUDY    68  66  94 E5        29.85S
ORANGE CITY *  CLOUDY    66  66 100 E7        29.87R
SHELDON *      CLOUDY    66  64  94 SE8       29.87R
SIOUX CITY     CLOUDY    67  67 100 S8        29.85S
SPENCER        CLOUDY    66  65  96 SE9       29.91R
STORM LAKE *   CLOUDY    66  66 100 S14G24    29.89S FOG
$$

IAZ055>058-069>071-079>083-090>094-160400-
   SOUTHWEST IOWA

CITY           SKY/WX    TMP DP  RH WIND       PRES   REMARKS
ATLANTIC *     CLOUDY    73  70  88 N10       29.93R
AUDUBON *      CLOUDY    70  66  88 NW5       29.96R
CLARINDA *       N/A     73  70  88 SE5       29.90S
COUNCIL BLFS * CLOUDY    70  70 100 NE14G21   29.90S
CRESTON *      CLOUDY    72  68  88 E8        29.92R
HARLAN  *      CLOUDY    68  66  94 NE7       29.95F
LAMONI         PTCLDY    74  70  87 NE5       29.90R
RED OAK *      CLOUDY    77  70  78 N15G21    29.89R
SHENANDOAH *   CLOUDY    75  70  83 SE7       29.87S
$$

IAZ047>049-059>061-072>074-084-160400-
   CENTRAL IOWA

CITY           SKY/WX    TMP DP  RH WIND       PRES   REMARKS
AMES           PTCLDY    67  67 100 SE5       29.92S
ANKENY *       CLEAR     66  66 100 N3        29.92S FOG
BOONE *        CLOUDY    68  66  94 SE6       29.93R
CHARITON *     CLOUDY    72  70  94 E9        29.91R
DES MOINES     MOCLDY    71  69  93 NE8       29.91R
GRINNELL*      CLOUDY    67  65  94 E9        29.94S
KNOXVILLE *    PTCLDY    72  68  88 E9        29.90R
MARSHALLTOWN   CLOUDY    67  66  97 E8        29.93S
NEWTON *       CLEAR     68  66  94 NE9       29.92S
PELLA *        CLEAR     70  68  94 E5        29.92S
PERRY *        CLOUDY    70  69  97 E5        29.93R
$$

IAZ004>006-015-016-023>025-035-036-160400-
   NORTH CENTRAL IOWA

CITY           SKY/WX    TMP DP  RH WIND       PRES   REMARKS
ALGONA *       CLOUDY    66  66 100 SE8       29.92R
CLARION *      CLOUDY    66  66 100 SE10G17   29.92R
ESTHERVILLE    LGT RAIN  64  64 100 E7        29.91R
FORT DODGE *   CLOUDY    66  64  94 SE9       29.93R
MASON CITY     MOCLDY    65  63  93 SE10      29.95R
FOREST CITY *    N/A     64  64 100 SE8       29.93R
WEBSTER CITY * CLOUDY    68  66  94 SE10      29.90S
IOWA FALLS *     N/A     67  65  94 E5        29.94S
$$

IAZ007>011-017>019-026>030-037>042-050>054-066-160400-
   NORTHEAST IOWA

CITY           SKY/WX    TMP DP  RH WIND       PRES   REMARKS
CEDAR RAPIDS   CLEAR     67  67 100 NE8       29.95R
CHARLES CITY * CLOUDY    66  66 100 E9        29.94F
CLINTON *      CLOUDY    68  66  93 NE7       29.96R
DECORAH *      MOCLDY    66  63  88 SE6       29.96S
DUBUQUE        CLOUDY    66  64  93 NE3       29.98R
MONTICELLO *   CLOUDY    64  63  94 CALM      29.96S FOG
OELWEIN *      PTCLDY    64  64 100 SE6       29.97S
WATERLOO       CLOUDY    68  63  84 E8        29.94S
$$

IAZ064-065-067-068-078-160400-
   EAST CENTRAL IOWA

CITY           SKY/WX    TMP DP  RH WIND       PRES   REMARKS
DAVENPORT      CLOUDY    69  66  90 NE8       29.97R
IOWA CITY      PTCLDY    73  66  78 NE7       29.95R
MUSCATINE *    CLEAR     72  68  88 NE6       29.93R
QUAD CITIES    MOCLDY    75  66  73 E10       29.94R
$$

IAZ062-063-075>077-085>089-095>099-160400-
   SOUTHEAST IOWA

CITY           SKY/WX    TMP DP  RH WIND       PRES   REMARKS
BURLINGTON     PTCLDY    77  71  82 NE8       29.92R
FAIRFIELD *    MOCLDY    73  70  88 NE8       29.92R
FORT MADISON * PTCLDY    73  72  94 E5        29.93R
KEOKUK *       CLEAR     73  72  94 NE5       29.90S
OSKALOOSA *      N/A     70  69  95 E8        29.92S
OTTUMWA        CLEAR     73  71  93 E10       29.90S
WASHINGTON *   CLEAR     70  70 100 NE7       29.95R
$$

ABBREVIATIONS USED IN REMARKS
   TC - TEMPERATURES IN CELSIUS
  WCI - WIND CHILL INDEX
   HX - HEAT INDEX
  VSB - VISIBILITY
$$





USA.gov is the U.S. government's official web portal to all federal, state and local government web resources and services.